Regional Weather Roundup
Issued by NWS Northern Indiana

Home | Current Version | Previous Version | Text Only | Print | Product List | Glossary On
Versions: 1 2 3 4 5 6 7 8 9 10 11 12 13 14 15 16 17 18 19 20 21 22 23 24 25 26 27 28 29 30 31 32 33 34 35 36 37 38 39 40 41 42 43 44 45 46 47 48 49 50
000
ASUS43 KIWX 300400
RWRIWX

KIWX WEATHER ROUNDUP
NATIONAL WEATHER SERVICE NORTHERN INDIANA
1200 AM EDT WED JUL 30 2014

NOTE: "FAIR" INDICATES FEW OR NO CLOUDS BELOW 12,000 FEET WITH NO
SIGNIFICANT WEATHER AND/OR OBSTRUCTIONS TO VISIBILITY.

* THESE STATIONS ARE NOT UNDER NWS QUALITY CONTROL. THEY ALSO MAY NOT
  REPORT WEATHER SUCH AS PRECIPITATION OR FOG.

INZ001>027-300500-
NORTHERN INDIANA

CITY           SKY/WX    TMP DP  RH WIND       PRES   REMARKS
VALPARAISO     MOCLDY    60  57  89 W6        30.02S
SOUTH BEND     PTCLDY    64  56  75 SW5       30.00F
GOSHEN         PTCLDY    60  55  83 S3        30.01S
ANGOLA*        CLEAR     55  46  71 CALM      30.01S
FORT WAYNE     CLEAR     60  58  92 W8        30.02S
PERU/GRISSOM   CLEAR     58  58 100 SW3       30.03S

$$
INZ028>050-300500-
CENTRAL INDIANA

CITY           SKY/WX    TMP DP  RH WIND       PRES   REMARKS
LAFAYETTE      RAIN      60  60 100 CALM      30.03F VSB 3/4
KOKOMO*        CLEAR     59  55  88 W5        30.03F
MUNCIE*        CLEAR     61  56  83 W7        30.03F
INDIANAPOLIS   PTCLDY    61  59  93 S3        30.05S

$$
MIZ043>046-050>051-056>058-064>065-071>073-077>080-300500-
SOUTHWEST LOWER MICHIGAN

CITY           SKY/WX    TMP DP  RH WIND       PRES   REMARKS
BATTLE CREEK   PTCLDY    61  55  81 CALM      30.00S
BENTON HARBOR  MOCLDY    61  58  90 CALM      30.00S
COLDWATER*     PTCLDY    57  56  96 CALM      30.00S
HILLSDALE*     CLEAR     55  55 100 CALM      30.00S
HOLLAND        MOCLDY    62  59  90 W7        30.00F
GRAND RAPIDS   MOCLDY    64  57  78 W7        29.99F
KALAMAZOO      CLOUDY    61  55  81 CALM      30.00S
STURGIS*       PTCLDY    57  55  94 CALM      30.00S
THREE RIVERS*  MOCLDY    60  58  95 CALM      30.00S

$$
OHZ001>008-015>018-024>025-300500-
NORTHWEST OHIO

CITY           SKY/WX    TMP DP  RH WIND       PRES   REMARKS
DEFIANCE       CLEAR     57  55  93 SW5       30.00F FOG
FINDLAY        PTCLDY    60  56  86 SW5       30.00S
TOLEDO EXPRESS CLEAR     61  56  83 W6        29.98F
TOLEDO METCALF PTCLDY    64  55  72 SW8       29.99S
LIMA           CLEAR     63  58  83 SW7       30.01F

$$
&&


USA.gov is the U.S. government's official web portal to all federal, state and local government web resources and services.